Torna al catalogo

STARLINK-34678

AttivoComunicazioniSSO
NORAD 65443·PAYLOAD·🇺🇸 United States

Lanciato Sep 3, 2025 da Vandenberg Space Force Base

Loading…

Prossimi Passaggi (prossime 24 ore)

TLE

AggiornatoSource: CelesTrak SupGP

Epoca: Sep 14, 2026, 22:45 UTC

1 65443C 25194K   26257.94840278  .00101670  00000+0  31576-2 0  2572
2 65443  97.2848 107.6492 0001732  93.7973 340.1528 15.33371772    15

Traccia STARLINK-34678 in tempo reale con AllMySat

Download on the App Store